[Iaude] MPEC F158: 2019 FT1 [a=2.05,e=0.55,i=4.5,H=27.1]

mpec at mpcdb1.cfa.harvard.edu mpec at mpcdb1.cfa.harvard.edu
Sun Mar 31 19:55:16 EDT 2019


M.P.E.C. 2019-F158                               Issued 2019 Mar. 31, 23:51 UT
 
     The Minor Planet Electronic Circulars contain information on unusual
         minor planets and routine data on comets.  They are published
    on behalf of Division F of the International Astronomical Union by the
          Minor Planet Center, Smithsonian Astrophysical Observatory,
                          Cambridge, MA 02138, U.S.A.

             Prepared using the Tamkin Foundation Computer Network

                              MPC at CFA.HARVARD.EDU
            URL https://www.minorplanetcenter.net/    ISSN 1523-6714


                                   2019 FT1
 
Observations:
     K19F01T* C2019 03 29.31560 12 49 43.01 +04 14 56.5          21.4 GVEF158G96
     K19F01T  C2019 03 29.32075 12 49 46.44 +04 14 50.6          20.7 GVEF158G96
     K19F01T  C2019 03 29.32588 12 49 49.89 +04 14 44.2          20.7 GVEF158G96
     K19F01T  C2019 03 29.33101 12 49 53.27 +04 14 38.1          20.8 GVEF158G96
     K19F01T  C2019 03 29.36225812 50 13.37 +04 13 56.5          20.9 GVEF158H01
     K19F01T  C2019 03 29.36539312 50 15.44 +04 13 52.9          20.3 GVEF158H01
     K19F01T KC2019 03 29.36581 12 50 14.97 +04 14 02.1                oEF158711
     K19F01T KC2019 03 29.36850 12 50 16.75 +04 13 58.9                oEF158711
     K19F01T KC2019 03 29.37117 12 50 18.57 +04 13 56.1                oEF158711
     K19F01T  C2019 03 29.37719812 50 23.27 +04 13 38.9          20.2 GVEF158H01
     K19F01T  C2019 03 29.38388312 50 27.70 +04 13 31.0          20.8 GVEF158H01
     K19F01T  C2019 03 29.42670 12 50 56.49 +04 12 45.6          20.7 GVEF158I52
     K19F01T  C2019 03 29.42795 12 50 57.38 +04 12 43.7          21.1 GVEF158I52
     K19F01T  C2019 03 29.42919 12 50 58.17 +04 12 42.2          20.4 GVEF158I52
     K19F01T  C2019 03 29.43044 12 50 59.01 +04 12 40.5          20.8 GVEF158I52
     K19F01T KC2019 03 30.04115012 57 46.90 +04 01 15.7          21.2 GVEF158L01
     K19F01T KC2019 03 30.04374412 57 48.33 +04 01 13.1          21.1 GVEF158L01
     K19F01T KC2019 03 30.04634212 57 49.79 +04 01 10.4          21.1 GVEF158L01
     K19F01T  C2019 03 30.26927 13 00 09.27 +03 58 04.2          21.2 GVEF158G96
     K19F01T  C2019 03 30.27113 13 00 10.44 +03 58 00.6          19.6 GVEF158G96
     K19F01T  C2019 03 30.27299 13 00 11.19 +03 58 01.2          20.6 GVEF158G96
     K19F01T  C2019 03 30.27484 13 00 12.20 +03 57 59.4          20.7 GVEF158G96
     K19F01T  C2019 03 31.35170 13 09 16.20 +03 42 24.6          22.1 GVEF158G96
     K19F01T  C2019 03 31.35333 13 09 16.84 +03 42 23.2          21.7 GVEF158G96
     K19F01T  C2019 03 31.35495 13 09 17.47 +03 42 22.1          21.5 GVEF158G96
     K19F01T  C2019 03 31.35658 13 09 18.09 +03 42 21.1          21.7 GVEF158G96
 
Observer details:
711 McDonald Observatory, Fort Davis.  Observer J. G. Ries.  2.1-m reflector
    + CCD + focal reducer.
G96 Mt. Lemmon Survey.  Observers B. M. Africano, D. C. Fuls.  Measurers
    B. M. Africano, E. J. Christensen, G. A. Farneth, D. C. Fuls, A. R. Gibbs,
    A. D. Grauer, H. Groeller, R. A. Kowalski, S. M. Larson, G. J. Leonard,
    T. A. Pruyne, R. L. Seaman, F. C. Shelly.  1.5-m reflector + 10K CCD.
H01 Magdalena Ridge Observatory, Socorro.  Observers W. H. Ryan, E. V. Ryan.
    Measurer W. H. Ryan.  2.4-m f/8.9 Ritchey-Chretien + CCD.
I52 Steward Observatory, Mt. Lemmon Station.  Observer H. Groeller.
    Measurers B. M. Africano, E. J. Christensen, G. A. Farneth, D. C. Fuls,
    A. R. Gibbs, A. D. Grauer, H. Groeller, R. A. Kowalski, S. M. Larson,
    G. J. Leonard, T. A. Pruyne, R. L. Seaman, F. C. Shelly.  1.0-m reflector
    + CCD.
L01 Visnjan Observatory, Tican.  Observers K. Korlevic, G. Kervina,
    F. Valentine.  Measurer K. Korlevic.  1.0-m f/2.9 reflector + CCD.
 
Orbital elements:
2019 FT1                                                 Earth MOID = 0.0063 AU
Epoch 2019 Apr. 27.0 TT = JDT 2458600.5                 MPC
M  22.36327              (2000.0)            P               Q
n   0.33678488     Peri.  316.46461     -0.76468810     -0.64438340
a   2.0459781      Node   183.42600     +0.61070068     -0.72234800
e   0.5513611      Incl.    4.51576     +0.20566183     -0.25096495
P   2.93           H   27.1           G   0.15           U   7
Residuals in seconds of arc
190329 G96  0.1-  0.6+    190329 H01  0.1+  0.0     190330 G96  0.2-  0.7-
190329 G96  0.2-  0.7+    190329 H01  0.1+  0.1-    190330 G96 (2.8+  2.5-)
190329 G96  0.3+  0.3+    190329 I52  0.6-  0.2+    190330 G96  0.4-  0.2-
190329 G96  0.1-  0.1+    190329 I52  0.3+  0.3-    190330 G96  0.4+  0.2-
190329 H01  0.2+  0.0     190329 I52  0.1-  0.3-    190331 G96  0.2+  0.1+
190329 H01  0.1+  0.1+    190329 I52  0.1+  0.5-    190331 G96  0.2+  0.0
190329 711  0.3-  0.2-    190330 L01  0.3+  0.1-    190331 G96  0.0   0.2+
190329 711  0.3-  0.2-    190330 L01  0.1-  0.1-    190331 G96  0.3-  0.5+
190329 711  0.5+  0.2+    190330 L01  0.1-  0.1-

Ephemeris:
2019 FT1                 a,e,i = 2.05, 0.55, 5                   q = 0.9179
Date    TT    R. A. (2000) Decl.     Delta      r     Elong.  Phase     V
2019 03 01    02 37 38.3 -01 07 39   0.1365  0.9260    58.2   114.6    27.1
...
2019 03 16    03 41 58.7 +00 51 28   0.04563 0.9727    60.3   117.4    25.0
...
2019 03 24    09 52 43.5 +07 09 54   0.01810 1.0116   144.7    34.7    19.8
...
2019 03 30    12 57 24.2 +04 03 59   0.04789 1.0457   170.2     9.4    21.2
2019 03 31    13 06 32.5 +03 48 29   0.05389 1.0518   169.1    10.3    21.5
2019 04 01    13 13 48.4 +03 35 33   0.05998 1.0579   168.4    11.0    21.8
...
2019 04 07    13 37 23.5 +02 45 44   0.09803 1.0966   167.1    11.8    23.0
...
2019 04 15    13 48 55.7 +02 02 57   0.1522  1.1521   167.6    10.8    24.0
...
2019 04 30    13 56 25.8 +00 41 33   0.2667  1.2646   163.0    13.5    25.5

A. U. Tomatic                (C) Copyright 2019 MPC           M.P.E.C. 2019-F158



More information about the Iaude mailing list